Regional Weather Roundup
Issued by NWS New Orleans/Baton Rouge, LA

Home | Current Version | Previous Version | Graphics & Text | Print | Product List | Glossary On
Versions: 1 2 3 4 5 6 7 8 9 10 11 12 13 14 15 16 17 18 19 20 21 22 23 24 25 26 27 28 29 30 31 32 33 34 35 36 37 38 39 40 41 42 43 44 45 46 47 48 49 50
097
ASUS44 KLIX 181807
RWRLIX
NEW ORLEANS REGIONAL WEATHER ROUNDUP
NATIONAL WEATHER SERVICE NEW ORLEANS LA
100 PM CDT SAT APR 18 2015

NOTE: "FAIR" INDICATES FEW OR NO CLOUDS BELOW 12,000 FEET WITH NO
      SIGNIFICANT WEATHER AND/OR OBSTRUCTIONS TO VISIBILITY.
      SKY/WX - SKY CONDITION AND SIGNIFICANT WEATHER.
      TMP - AIR TEMPERATURE.     DP    - DEWPOINT TEMPERATURE.
      RH  - RELATIVE HUMIDITY.   PRES  - PRESSURE.
      HI  - HEAT INDEX.          WCI   - WIND CHILL INDEX.

*  THESE STATIONS ARE NOT NWS OR FAA STATIONS AND ARE NOT UNDER
   NWS QUALITY CONTROL.

LAZ038-040-048-061>063-065>067-069-181900-
SOUTHEAST LOUISIANA

CITY           SKY/WX    TMP DP  RH WIND       PRES   REMARKS
N.O. AUDUBON     N/A     75  73  94 MISG        N/A
6HR MIN TEMP:  67; 6HR MAX TEMP:  75; 6HR PCP:  0.53;

N.O. INTL ARPT CLOUDY    74  68  81 SE10      29.88F
6HR MIN TEMP:  70; 6HR MAX TEMP:  74; 6HR PCP:  0.67;

N.O. LAKEFRONT CLOUDY    76  69  79 SE16      29.89F
6HR MIN TEMP:  72; 6HR MAX TEMP:  76; 6HR PCP:  0.58;

SLIDELL        CLOUDY    75  70  84 SE10      29.89F
6HR MIN TEMP:  69; 6HR MAX TEMP:  75; 6HR PCP:  0.49;

BATON ROUGE    CLOUDY    79  70  74 SE10      29.87F
6HR MIN TEMP:  69; 6HR MAX TEMP:  79; 6HR PCP:  0.11;

BOOTHVILLE     LGT RAIN  70  70 100 E10G21    29.91F FOG
6HR MIN TEMP:  69; 6HR MAX TEMP:  71; 6HR PCP:  0.64;

BELLE CHASSE   CLOUDY    73  69  87 SE14      29.88F
6HR MIN TEMP:  69; 6HR MAX TEMP:  73;

BOGALUSA*        N/A     77  67  71 S6        29.91F
6HR MIN TEMP:  70; 6HR MAX TEMP:  77; 6HR PCP:  0.09;

GALLIANO*      CLOUDY    73  69  88 E3        29.88F
6HR MIN TEMP:  67; 6HR MAX TEMP:  73; 6HR PCP:  0.40;

NEW ROADS*     MOCLDY    74  68  80 SE6       29.87F
6HR MIN TEMP:  68; 6HR MAX TEMP:  75; 6HR PCP:  0.07;

GONZALES*        N/A     77  70  77 SE5       29.87F
6HR MIN TEMP:  69; 6HR MAX TEMP:  77; 6HR PCP:  0.36;

HAMMOND*       CLOUDY    77  66  69 SE10      29.90S
HOUMA*         MOSUNNY   73  70  88 E12       29.87F
PORT FOURCHON* CLEAR     73  70  88 E15G28    29.89F

$$

MSZ070-080>082-181900-
SOUTHERN MISSISSIPPI

CITY           SKY/WX    TMP DP  RH WIND       PRES   REMARKS
MCCOMB         CLOUDY    75  68  78 S10       29.88F
6HR MIN TEMP:  67; 6HR MAX TEMP:  76; 6HR PCP: TRACE;

GULFPORT       CLOUDY    74  71  91 SE16      29.90F
6HR MIN TEMP:  68; 6HR MAX TEMP:  75; 6HR PCP:  0.17;

BILOXI         CLOUDY    74  74  99 S13G18    29.90F
6HR MIN TEMP:  68; 6HR MAX TEMP:  74; 6HR PCP:  0.20;

PASCAGOULA     CLOUDY    74  72  93 SE12      29.91F
6HR MIN TEMP:  68; 6HR MAX TEMP:  74; 6HR PCP: TRACE;

STENNIS ARPT*  PTSUNNY   73  66  78 MISG      29.90F

$$

COASTAL OBSERVATIONS
LAKE AND NEARSHORE STATIONS

STATION/POSITION TIME  TEMP    WIND        PRES    WAVE
                       AIR SEA DIR/SP/G            HT/PER
                 (UTC) (F)     (DEG/KT/KT) (MB)    (FT/S)
PASCAGOULA       1700   73     150/  7/ 10 1014.1
WAVELAND YACHT   1700   73 73  130/ 13/ 15 1012.9
GRAND ISLE       1700   71 75  110/ 13/ 19 1012.7
SOUTHWEST PASS   1700   69 63   40/ 13/ 14 1015.7
NEW CANAL        1700   74     150/  2/  6 1012.9
SHELL BEACH      1700   73 75  110/ 14/ 17 1012.4

OFFSHORE STATIONS

STATION/POSITION TIME  TEMP    WIND        PRES    WAVE
                       AIR SEA DIR/SP/G            HT/PER
                 (UTC) (F)     (DEG/KT/KT) (MB)    (FT/S)
64 S DAUPHIN ISL 1750   71 75   90/  6/  8 1015.1    2/ 5

$$




USA.gov is the U.S. government's official web portal to all federal, state and local government web resources and services.